Regional Weather Roundup
Issued by NWS

Home | Current Version | Previous Version | Text Only | Print | Product List | Glossary Off
Versions: 1 2 3 4 5 6 7 8 9 10 11 12 13 14 15 16 17 18 19 20 21 22 23 24 25 26 27 28 29 30 31 32 33 34 35 36 37 38 39 40 41 42 43 44 45 46 47 48 49 50

000
ASUS45 KBOU 231707
RWRCO

WEATHER ROUNDUP FOR COLORADO
NATIONAL WEATHER SERVICE DENVER/BOULDER CO
1100 AM MDT WED JUL 23 2014

NOTE: "FAIR" INDICATES FEW OR NO CLOUDS BELOW 12000 FEET WITH NO
SIGNIFICANT WEATHER AND/OR OBSTRUCTIONS TO VISIBILITY.

COZ001>005-013-030-031-231800-
...NORTHWEST COLORADO...

CITY           SKY/WX    TMP DP  RH WIND       PRES   REMARKS
CRAIG          SUNNY     82  45  27 VRB3      30.36F
HAYDEN         SUNNY     82  41  23 E6        30.40F
MEEKER         MOSUNNY   88  41  19 VRB6      30.37F
MOUNT WERNER   NOT AVBL
STEAMBOAT SPGS SUNNY     81  46  29 MISG      30.42F
WALDEN         SUNNY     77  37  24 SE8       30.53F
$$

COZ006>008-011-231800-
...WEST CENTRAL VALLEYS...

CITY           SKY/WX    TMP DP  RH WIND       PRES   REMARKS
GRAND JUNCTION SUNNY     91  38  15 SE5       30.24F
MONTROSE       MOSUNNY   92  39  15 CALM      30.34F
EAGLE          MOSUNNY   79  41  25 CALM      30.43F
RIFLE          MOSUNNY   86  42  21 W7        30.31F
DELTA            N/A    N/A N/A N/A MISG        N/A
NUCLA          MOSUNNY   88  39  18 N7        30.39F
$$

COZ017>023-064>068-231800-
...SOUTHWEST COLORADO...

CITY           SKY/WX    TMP DP  RH WIND       PRES   REMARKS
DURANGO        MOSUNNY   83  46  27 E7        30.44F
CORTEZ         SUNNY     88  46  23 SW12      30.36
PAGOSA SPRINGS MOSUNNY   79  38  22 W6        30.54S
TELLURIDE      NOT AVBL
WOLF CREEK PAS NOT AVBL
$$

COZ009-010-012-014-032>034-037-058>063-231800-
...CENTRAL COLORADO...

CITY           SKY/WX    TMP DP  RH WIND       PRES   REMARKS
ASPEN          SUNNY     84  39  20 NW5       30.49F
BUENA VISTA    SUNNY     76  44  31 E6        30.56F
COPPER MTN     SUNNY     66  32  28 S16       30.90S
BERTHOUD PASS  FAIR      57  43  58 MISG      30.94S
COTTONWOOD PAS SUNNY     77  36  22 SE5       30.72S
GUNNISON       SUNNY     77  45  31 N3        30.55F
KREMMLING      SUNNY     79  34  19 CALM      30.49F
LEADVILLE      SUNNY     70  37  29 S6        30.70F
MONARCH PASS   SUNNY     59  39  47 E9        30.99F
SALIDA         SUNNY    N/A N/A N/A NE3       30.59F
SUNLIGHT       MOSUNNY   73  41  31 CALM      30.79S
WILKERSON PASS SUNNY     66  36  32 S5        30.87S
$$

COZ069>075-231800-
...SAN LUIS VALLEY/SANGRE DE CRISTO MOUNTAINS...

CITY           SKY/WX    TMP DP  RH WIND       PRES   REMARKS
ALAMOSA        SUNNY     77  49  37 SW5       30.53F
LA VETA PASS   SUNNY     72  37  28 E8        30.75S
SAGUACHE       SUNNY     79  46  31 S7        30.55F
$$

COZ035-036-038>040-231800-
...NORTHERN COLORADO FRONT RANGE...

CITY           SKY/WX    TMP DP  RH WIND       PRES   REMARKS
DENVER INTL AP MOSUNNY   77  61  57 VRB3      30.37S
DMNS CITY PARK   N/A     75  62  63 NE5G15    30.37S
AURORA         MOSUNNY   76  63  64 N10       30.39S
FRONT RANGE AP NOT AVBL
ERIE MUNI ARPT PTSUNNY   73  63  68 N13       30.37F
BOULDER MUN AP PTSUNNY   73  61  64 NE9       30.38S
CENTENNIAL     MOSUNNY   80  59  48 NE9       30.38S
BROOMFIELD     PTSUNNY   73  63  68 N10       30.40S HAZE
FORT COLLINS   MOSUNNY   72  63  73 N7        30.38F
LONGMONT       PTSUNNY   77  62  60 N9        30.38F
$$

COZ041-046-047-076>085-087-088-231800-
...PIKES PEAK/PALMER DIVIDE AND SOUTHERN FOOTHILLS...

CITY           SKY/WX    TMP DP  RH WIND       PRES   REMARKS
COLO. SPRINGS  MOSUNNY   83  52  34 SE15      30.42F
A. F. ACADEMY  SUNNY     84  49  30 SE13G21   30.43F
ELLICOTT       SUNNY     83  57  41 S18       30.41F
FALCON         SUNNY     81  52  36 S12       30.49S
FORT CARSON    SUNNY     84  55  37 SE10      30.40S
LIMON          SUNNY     87  55  33 SE18G25   30.37S
MONUMENT HILL  SUNNY     84  34  16 S12G17    30.46S
TRINIDAD       SUNNY     86  51  29 S7        30.38F
$$

COZ042>045-048>051-090-091-231800-
...NORTHEAST COLORADO...

CITY           SKY/WX    TMP DP  RH WIND       PRES   REMARKS
GREELEY ARPT   PTSUNNY   79  61  53 SE12      30.35S
AKRON          CLOUDY    67  63  87 SE23G29   30.35F
BURLINGTON     PTSUNNY   74  66  76 NE22G32   30.37S
WRAY             N/A     78  65  64 SE18G24   30.33F
STERLING       CLOUDY    75  68  78 SE15G22   30.32F
HOLYOKE        PTSUNNY   79  64  61 S13G18    30.32S
FORT MORGAN    PTSUNNY   77  63  62 SE18      30.34S
$$

COZ086-089-092>099-231800-
...SOUTHEAST COLORADO...

CITY           SKY/WX    TMP DP  RH WIND       PRES   REMARKS
PUEBLO         SUNNY     85  58  39 E9        30.30F
LA JUNTA       SUNNY     86  55  34 SW6       30.28F
LAMAR          SUNNY     92  65  40 E12       30.23S
SPRINGFIELD      N/A     89  59  36 S12       30.29F
$$


USA.gov is the U.S. government's official web portal to all federal, state and local government web resources and services.